Track NAVSTAR 47 (USA 150) now! NAVSTAR 47 (USA 150) is classified as:
1 26360U 00025A 25199.54199660 -.00000062 00000-0 00000-0 0 9999 2 26360 54.9567 32.7874 0035559 232.5614 136.1152 2.00578712184583